Time,TemperatureF,DewpointF,PressureIn,WindDirection,WindDirectionDegrees,WindSpeedMPH,WindSpeedGustMPH,Humidity,HourlyPrecipIn,Conditions,Clouds,dailyrainin,SolarRadiationWatts/m^2,SoftwareType,DateUTC
2013-01-11 00:00:00,43.7,36.6,30.52,North,355,2.0,2.0,76,0.00,,,0.00,0,Wunderground v.1.15,2013-01-11 05:00:00,
2013-01-11 00:10:00,43.5,36.4,30.53,North,355,0.0,7.0,76,0.00,,,0.00,0,Wunderground v.1.15,2013-01-11 05:10:00,
2013-01-11 00:15:00,43.4,36.3,30.52,North,355,0.0,7.0,76,0.00,,,0.00,0,Wunderground v.1.15,2013-01-11 05:15:00,
2013-01-11 00:20:00,43.3,35.9,30.52,North,355,0.0,7.0,75,0.00,,,0.00,0,Wunderground v.1.15,2013-01-11 05:20:00,
2013-01-11 00:25:00,43.1,35.7,30.51,North,355,0.0,7.0,75,0.00,,,0.00,0,Wunderground v.1.15,2013-01-11 05:25:00,
2013-01-11 00:30:00,42.9,35.5,30.50,North,355,0.0,7.0,75,0.00,,,0.00,0,Wunderground v.1.15,2013-01-11 05:30:00,
2013-01-11 00:35:00,42.8,35.4,30.51,North,355,0.0,7.0,75,0.00,,,0.00,0,Wunderground v.1.15,2013-01-11 05:35:00,
2013-01-11 00:40:00,42.8,35.4,30.50,North,355,0.0,7.0,75,0.00,,,0.00,0,Wunderground v.1.15,2013-01-11 05:40:00,
2013-01-11 00:45:00,42.8,35.4,30.50,North,355,1.0,7.0,75,0.00,,,0.00,0,Wunderground v.1.15,2013-01-11 05:45:00,
2013-01-11 00:55:00,42.9,35.2,30.51,North,355,1.0,7.0,74,0.00,,,0.00,0,Wunderground v.1.15,2013-01-11 05:55:00,
2013-01-11 01:05:00,43.1,35.4,30.50,North,355,1.0,7.0,74,0.00,,,0.00,0,Wunderground v.1.15,2013-01-11 06:05:00,
2013-01-11 01:10:00,43.1,35.4,30.51,North,355,1.0,1.0,74,0.00,,,0.00,0,Wunderground v.1.15,2013-01-11 06:10:00,
2013-01-11 01:15:00,43.1,35.4,30.51,North,355,0.0,7.0,74,0.00,,,0.00,0,Wunderground v.1.15,2013-01-11 06:15:00,
2013-01-11 01:25:00,43.0,35.3,30.51,North,355,0.0,7.0,74,0.00,,,0.00,0,Wunderground v.1.15,2013-01-11 06:25:00,
2013-01-11 01:30:00,42.9,34.8,30.50,North,355,0.0,7.0,73,0.00,,,0.00,0,Wunderground v.1.15,2013-01-11 06:30:00,
2013-01-11 01:35:00,42.8,34.7,30.50,North,355,0.0,7.0,73,0.00,,,0.00,0,Wunderground v.1.15,2013-01-11 06:35:00,
2013-01-11 01:45:00,42.7,35.0,30.50,North,355,0.0,7.0,74,0.00,,,0.00,0,Wunderground v.1.15,2013-01-11 06:45:00,
2013-01-11 01:55:00,42.6,34.9,30.50,North,355,1.0,7.0,74,0.00,,,0.00,0,Wunderground v.1.15,2013-01-11 06:55:00,
2013-01-11 02:00:00,42.6,34.9,30.50,North,355,0.0,7.0,74,0.00,,,0.00,0,Wunderground v.1.15,2013-01-11 07:00:00,
2013-01-11 02:05:00,42.5,35.1,30.50,North,355,0.0,7.0,75,0.00,,,0.00,0,Wunderground v.1.15,2013-01-11 07:05:00,
2013-01-11 02:15:00,42.8,35.8,30.50,North,355,1.0,7.0,76,0.00,,,0.00,0,Wunderground v.1.15,2013-01-11 07:15:00,
2013-01-11 02:20:00,42.9,36.2,30.49,North,355,1.0,7.0,77,0.00,,,0.00,0,Wunderground v.1.15,2013-01-11 07:20:00,
2013-01-11 02:30:00,43.1,36.7,30.50,North,355,1.0,7.0,78,0.00,,,0.00,0,Wunderground v.1.15,2013-01-11 07:30:00,
2013-01-11 02:35:00,43.1,36.7,30.49,North,355,1.0,7.0,78,0.00,,,0.00,0,Wunderground v.1.15,2013-01-11 07:35:00,
2013-01-11 02:45:00,43.2,37.1,30.48,North,355,2.0,7.0,79,0.00,,,0.00,0,Wunderground v.1.15,2013-01-11 07:45:00,
2013-01-11 02:50:00,43.3,37.5,30.48,North,355,3.0,7.0,80,0.00,,,0.00,0,Wunderground v.1.15,2013-01-11 07:50:00,
2013-01-11 03:00:00,43.6,38.2,30.48,North,355,3.0,3.0,81,0.00,,,0.00,0,Wunderground v.1.15,2013-01-11 08:00:00,
2013-01-11 03:05:00,43.7,38.9,30.47,North,355,3.0,7.0,83,0.00,,,0.00,0,Wunderground v.1.15,2013-01-11 08:05:00,
2013-01-11 03:10:00,43.8,39.0,30.47,North,355,3.0,7.0,83,0.00,,,0.00,0,Wunderground v.1.15,2013-01-11 08:10:00,
2013-01-11 03:20:00,44.0,39.5,30.47,North,355,1.0,7.0,84,0.00,,,0.00,0,Wunderground v.1.15,2013-01-11 08:20:00,
2013-01-11 03:25:00,44.0,39.8,30.47,North,355,0.0,7.0,85,0.00,,,0.00,0,Wunderground v.1.15,2013-01-11 08:25:00,
2013-01-11 03:35:00,43.9,39.7,30.46,North,355,1.0,7.0,85,0.00,,,0.00,0,Wunderground v.1.15,2013-01-11 08:35:00,
2013-01-11 03:40:00,43.9,40.0,30.46,North,355,1.0,1.0,86,0.00,,,0.00,0,Wunderground v.1.15,2013-01-11 08:40:00,
2013-01-11 03:50:00,43.8,39.9,30.46,North,355,0.0,7.0,86,0.00,,,0.00,0,Wunderground v.1.15,2013-01-11 08:50:00,
2013-01-11 03:55:00,43.8,39.9,30.46,North,355,0.0,7.0,86,0.00,,,0.00,0,Wunderground v.1.15,2013-01-11 08:55:00,
2013-01-11 04:05:00,43.7,39.8,30.46,North,355,0.0,7.0,86,0.00,,,0.00,0,Wunderground v.1.15,2013-01-11 09:05:00,
2013-01-11 04:10:00,43.6,39.7,30.46,North,355,0.0,7.0,86,0.00,,,0.00,0,Wunderground v.1.15,2013-01-11 09:10:00,
2013-01-11 04:20:00,43.2,39.3,30.46,North,355,0.0,7.0,86,0.00,,,0.00,0,Wunderground v.1.15,2013-01-11 09:20:00,
2013-01-11 04:25:00,42.9,39.0,30.46,North,355,0.0,7.0,86,0.00,,,0.00,0,Wunderground v.1.15,2013-01-11 09:25:00,
2013-01-11 04:35:00,42.4,38.5,30.44,North,355,0.0,7.0,86,0.00,,,0.00,0,Wunderground v.1.15,2013-01-11 09:35:00,
2013-01-11 04:40:00,42.4,38.5,30.44,North,355,0.0,7.0,86,0.00,,,0.00,0,Wunderground v.1.15,2013-01-11 09:40:00,
2013-01-11 04:50:00,42.3,38.7,30.44,North,355,0.0,7.0,87,0.00,,,0.00,0,Wunderground v.1.15,2013-01-11 09:50:00,
2013-01-11 04:55:00,42.4,38.8,30.44,North,355,0.0,7.0,87,0.00,,,0.00,0,Wunderground v.1.15,2013-01-11 09:55:00,
2013-01-11 05:05:00,42.4,38.8,30.45,North,355,0.0,7.0,87,0.00,,,0.00,0,Wunderground v.1.15,2013-01-11 10:05:00,
2013-01-11 05:10:00,42.3,38.7,30.45,North,355,0.0,7.0,87,0.00,,,0.00,0,Wunderground v.1.15,2013-01-11 10:10:00,
2013-01-11 05:20:00,42.0,38.4,30.45,North,355,0.0,7.0,87,0.00,,,0.00,0,Wunderground v.1.15,2013-01-11 10:20:00,
2013-01-11 05:25:00,41.8,38.5,30.45,North,355,0.0,7.0,88,0.00,,,0.00,0,Wunderground v.1.15,2013-01-11 10:25:00,
2013-01-11 05:35:00,41.7,38.4,30.45,North,355,0.0,7.0,88,0.00,,,0.00,0,Wunderground v.1.15,2013-01-11 10:35:00,
2013-01-11 05:40:00,41.6,38.3,30.45,North,355,0.0,7.0,88,0.00,,,0.00,0,Wunderground v.1.15,2013-01-11 10:40:00,
2013-01-11 05:50:00,41.4,38.1,30.45,North,355,0.0,7.0,88,0.00,,,0.00,0,Wunderground v.1.15,2013-01-11 10:50:00,
2013-01-11 05:55:00,41.2,37.9,30.45,North,355,0.0,7.0,88,0.00,,,0.00,0,Wunderground v.1.15,2013-01-11 10:55:00,
2013-01-11 06:05:00,40.7,37.4,30.44,North,355,0.0,7.0,88,0.00,,,0.00,0,Wunderground v.1.15,2013-01-11 11:05:00,
2013-01-11 06:10:00,40.7,37.4,30.44,North,355,0.0,7.0,88,0.00,,,0.00,0,Wunderground v.1.15,2013-01-11 11:10:00,
2013-01-11 06:20:00,40.8,37.5,30.45,North,355,0.0,7.0,88,0.00,,,0.00,0,Wunderground v.1.15,2013-01-11 11:20:00,
2013-01-11 06:25:00,40.8,37.5,30.45,North,355,0.0,7.0,88,0.00,,,0.00,0,Wunderground v.1.15,2013-01-11 11:25:00,
2013-01-11 06:30:00,40.8,37.5,30.45,North,355,0.0,7.0,88,0.00,,,0.00,0,Wunderground v.1.15,2013-01-11 11:30:00,
2013-01-11 06:40:00,40.8,37.8,30.45,North,355,0.0,7.0,89,0.00,,,0.00,0,Wunderground v.1.15,2013-01-11 11:40:00,
2013-01-11 06:50:00,40.6,37.6,30.46,North,355,0.0,7.0,89,0.00,,,0.00,0,Wunderground v.1.15,2013-01-11 11:50:00,
2013-01-11 06:55:00,40.6,37.6,30.45,North,355,0.0,7.0,89,0.00,,,0.00,0,Wunderground v.1.15,2013-01-11 11:55:00,
2013-01-11 07:05:00,40.4,37.4,30.45,North,355,0.0,7.0,89,0.00,,,0.00,0,Wunderground v.1.15,2013-01-11 12:05:00,
2013-01-11 07:10:00,40.5,37.5,30.45,North,355,0.0,7.0,89,0.00,,,0.00,0,Wunderground v.1.15,2013-01-11 12:10:00,
2013-01-11 07:15:00,40.6,37.6,30.45,North,355,0.0,7.0,89,0.00,,,0.00,0,Wunderground v.1.15,2013-01-11 12:15:00,
2013-01-11 07:25:00,41.1,38.4,30.45,North,355,0.0,7.0,90,0.00,,,0.00,7,Wunderground v.1.15,2013-01-11 12:25:00,
2013-01-11 07:30:00,41.4,38.7,30.44,North,355,0.0,7.0,90,0.00,,,0.00,11,Wunderground v.1.15,2013-01-11 12:30:00,
2013-01-11 07:40:00,41.7,39.0,30.43,North,355,0.0,7.0,90,0.00,,,0.00,23,Wunderground v.1.15,2013-01-11 12:40:00,
2013-01-11 07:45:00,41.8,39.1,30.43,North,355,0.0,7.0,90,0.00,,,0.00,28,Wunderground v.1.15,2013-01-11 12:45:00,
2013-01-11 07:55:00,42.2,39.5,30.42,North,355,1.0,7.0,90,0.00,,,0.00,28,Wunderground v.1.15,2013-01-11 12:55:00,
2013-01-11 08:05:00,42.2,39.5,30.42,North,355,1.0,7.0,90,0.00,,,0.00,44,Wunderground v.1.15,2013-01-11 13:05:00,
2013-01-11 08:10:00,42.2,39.5,30.42,North,355,0.0,7.0,90,0.00,,,0.00,49,Wunderground v.1.15,2013-01-11 13:10:00,
2013-01-11 08:15:00,42.2,39.5,30.43,North,355,0.0,7.0,90,0.00,,,0.00,100,Wunderground v.1.15,2013-01-11 13:15:00,
2013-01-11 08:25:00,42.7,40.3,30.43,North,355,0.0,7.0,91,0.00,,,0.00,218,Wunderground v.1.15,2013-01-11 13:25:00,
2013-01-11 08:35:00,43.7,41.5,30.43,North,355,0.0,7.0,92,0.00,,,0.00,137,Wunderground v.1.15,2013-01-11 13:35:00,
2013-01-11 08:40:00,44.3,42.1,30.43,North,355,0.0,7.0,92,0.00,,,0.00,153,Wunderground v.1.15,2013-01-11 13:40:00,
2013-01-11 08:50:00,44.9,42.4,30.43,North,355,0.0,7.0,91,0.00,,,0.00,123,Wunderground v.1.15,2013-01-11 13:50:00,
2013-01-11 08:55:00,45.1,42.6,30.43,North,355,0.0,7.0,91,0.00,,,0.00,123,Wunderground v.1.15,2013-01-11 13:55:00,
2013-01-11 09:00:00,45.2,42.7,30.42,North,355,1.0,7.0,91,0.00,,,0.00,160,Wunderground v.1.15,2013-01-11 14:00:00,
2013-01-11 09:10:00,45.3,42.8,30.42,North,355,1.0,1.0,91,0.00,,,0.00,163,Wunderground v.1.15,2013-01-11 14:10:00,
2013-01-11 09:20:00,45.4,42.9,30.42,North,355,0.0,7.0,91,0.00,,,0.00,120,Wunderground v.1.15,2013-01-11 14:20:00,
2013-01-11 09:25:00,45.5,43.0,30.41,North,355,0.0,7.0,91,0.00,,,0.00,105,Wunderground v.1.15,2013-01-11 14:25:00,
2013-01-11 09:35:00,45.6,43.1,30.41,North,355,0.0,7.0,91,0.00,,,0.00,100,Wunderground v.1.15,2013-01-11 14:35:00,
2013-01-11 09:40:00,45.7,43.2,30.41,North,355,1.0,7.0,91,0.00,,,0.00,90,Wunderground v.1.15,2013-01-11 14:40:00,
2013-01-11 09:45:00,45.8,43.3,30.40,North,355,1.0,7.0,91,0.00,,,0.00,90,Wunderground v.1.15,2013-01-11 14:45:00,
2013-01-11 09:55:00,45.7,43.2,30.40,NE,38,2.0,7.0,91,0.00,,,0.00,69,Wunderground v.1.15,2013-01-11 14:55:00,
2013-01-11 10:05:00,45.6,43.1,30.40,East,98,3.0,7.0,91,0.00,,,0.00,114,Wunderground v.1.15,2013-01-11 15:05:00,
2013-01-11 10:10:00,45.7,43.2,30.40,East,92,2.0,7.0,91,0.00,,,0.00,127,Wunderground v.1.15,2013-01-11 15:10:00,
2013-01-11 10:20:00,46.0,43.5,30.40,East,92,2.0,7.0,91,0.00,,,0.00,149,Wunderground v.1.15,2013-01-11 15:20:00,
2013-01-11 10:25:00,46.1,43.6,30.40,East,92,1.0,7.0,91,0.00,,,0.00,167,Wunderground v.1.15,2013-01-11 15:25:00,
2013-01-11 10:35:00,46.6,44.1,30.40,East,92,0.0,7.0,91,0.00,,,0.00,202,Wunderground v.1.15,2013-01-11 15:35:00,
2013-01-11 10:40:00,46.6,43.8,30.40,East,92,0.0,7.0,90,0.00,,,0.00,134,Wunderground v.1.15,2013-01-11 15:40:00,
2013-01-11 10:45:00,46.7,43.9,30.40,East,88,0.0,7.0,90,0.00,,,0.00,142,Wunderground v.1.15,2013-01-11 15:45:00,
2013-01-11 10:55:00,46.7,43.6,30.38,East,87,0.0,7.0,89,0.00,,,0.00,258,Wunderground v.1.15,2013-01-11 15:55:00,
2013-01-11 11:05:00,47.0,43.9,30.38,East,87,1.0,7.0,89,0.00,,,0.00,127,Wunderground v.1.15,2013-01-11 16:05:00,
2013-01-11 11:10:00,46.9,43.5,30.38,East,87,0.0,7.0,88,0.00,,,0.00,155,Wunderground v.1.15,2013-01-11 16:10:00,
2013-01-11 11:20:00,46.9,43.5,30.38,East,87,0.0,7.0,88,0.00,,,0.00,195,Wunderground v.1.15,2013-01-11 16:20:00,
2013-01-11 11:25:00,47.0,43.6,30.37,East,87,0.0,7.0,88,0.00,,,0.00,199,Wunderground v.1.15,2013-01-11 16:25:00,
2013-01-11 11:30:00,46.9,43.2,30.37,East,88,2.0,2.0,87,0.00,,,0.00,199,Wunderground v.1.15,2013-01-11 16:30:00,
2013-01-11 11:40:00,47.2,43.8,30.36,East,88,0.0,7.0,88,0.00,,,0.00,199,Wunderground v.1.15,2013-01-11 16:40:00,
2013-01-11 11:50:00,47.2,43.5,30.35,East,88,1.0,7.0,87,0.00,,,0.00,200,Wunderground v.1.15,2013-01-11 16:50:00,
2013-01-11 11:55:00,47.3,43.9,30.34,East,88,2.0,7.0,88,0.00,,,0.00,195,Wunderground v.1.15,2013-01-11 16:55:00,
2013-01-11 12:00:00,47.4,43.7,30.34,East,88,1.0,1.0,87,0.00,,,0.00,167,Wunderground v.1.15,2013-01-11 17:00:00,
2013-01-11 12:10:00,47.3,43.6,30.34,East,88,0.0,7.0,87,0.00,,,0.00,63,Wunderground v.1.15,2013-01-11 17:10:00,
2013-01-11 12:15:00,47.2,43.5,30.33,East,96,2.0,7.0,87,0.00,,,0.00,42,Wunderground v.1.15,2013-01-11 17:15:00,
2013-01-11 12:25:00,47.1,43.7,30.33,East,96,1.0,7.0,88,0.00,,,0.00,67,Wunderground v.1.15,2013-01-11 17:25:00,
2013-01-11 12:30:00,47.2,43.8,30.33,East,96,0.0,7.0,88,0.00,,,0.00,109,Wunderground v.1.15,2013-01-11 17:30:00,
2013-01-11 12:40:00,47.1,44.0,30.33,East,96,0.0,7.0,89,0.00,,,0.00,134,Wunderground v.1.15,2013-01-11 17:40:00,
2013-01-11 12:45:00,46.9,43.8,30.32,East,96,1.0,7.0,89,0.00,,,0.00,97,Wunderground v.1.15,2013-01-11 17:45:00,
2013-01-11 12:55:00,46.9,43.8,30.30,East,96,1.0,7.0,89,0.00,,,0.00,51,Wunderground v.1.15,2013-01-11 17:55:00,
2013-01-11 13:00:00,46.8,43.7,30.30,SE,141,2.0,7.0,89,0.00,,,0.00,37,Wunderground v.1.15,2013-01-11 18:00:00,
2013-01-11 13:05:00,46.7,43.9,30.31,SE,144,2.0,7.0,90,0.00,,,0.00,74,Wunderground v.1.15,2013-01-11 18:05:00,
2013-01-11 13:15:00,46.6,43.8,30.31,South,180,3.0,7.0,90,0.00,,,0.01,91,Wunderground v.1.15,2013-01-11 18:15:00,
2013-01-11 13:20:00,46.7,43.9,30.29,SW,229,5.0,8.0,90,0.00,,,0.01,120,Wunderground v.1.15,2013-01-11 18:20:00,
2013-01-11 13:30:00,46.7,43.9,30.29,SW,230,6.0,6.0,90,0.00,,,0.01,151,Wunderground v.1.15,2013-01-11 18:30:00,
2013-01-11 13:35:00,46.8,44.3,30.28,SW,227,5.0,7.0,91,0.00,,,0.01,105,Wunderground v.1.15,2013-01-11 18:35:00,
2013-01-11 13:45:00,46.9,44.4,30.29,SW,227,3.0,7.0,91,0.00,,,0.01,95,Wunderground v.1.15,2013-01-11 18:45:00,
2013-01-11 13:50:00,46.8,44.3,30.29,SW,227,4.0,4.0,91,0.00,,,0.01,102,Wunderground v.1.15,2013-01-11 18:50:00,
2013-01-11 14:00:00,46.8,44.3,30.29,SW,227,2.0,2.0,91,0.00,,,0.01,54,Wunderground v.1.15,2013-01-11 19:00:00,
2013-01-11 14:05:00,46.9,44.4,30.28,SW,227,2.0,3.0,91,0.00,,,0.01,60,Wunderground v.1.15,2013-01-11 19:05:00,
2013-01-11 14:15:00,46.7,44.2,30.28,SW,227,4.0,7.0,91,0.00,,,0.01,49,Wunderground v.1.15,2013-01-11 19:15:00,
2013-01-11 14:20:00,46.6,44.1,30.27,SW,227,3.0,7.0,91,0.00,,,0.01,44,Wunderground v.1.15,2013-01-11 19:20:00,
2013-01-11 14:30:00,46.7,44.2,30.26,WSW,242,7.0,9.0,91,0.00,,,0.01,58,Wunderground v.1.15,2013-01-11 19:30:00,
2013-01-11 14:35:00,46.7,44.2,30.25,WSW,243,9.0,9.0,91,0.00,,,0.01,51,Wunderground v.1.15,2013-01-11 19:35:00,
2013-01-11 14:45:00,46.7,44.5,30.24,WSW,246,9.0,13.0,92,0.00,,,0.01,69,Wunderground v.1.15,2013-01-11 19:45:00,
2013-01-11 14:50:00,46.9,44.7,30.23,WSW,250,9.0,9.0,92,0.00,,,0.01,60,Wunderground v.1.15,2013-01-11 19:50:00,
2013-01-11 15:00:00,46.9,44.7,30.23,WSW,249,9.0,9.0,92,0.00,,,0.01,69,Wunderground v.1.15,2013-01-11 20:00:00,
2013-01-11 15:05:00,46.8,44.6,30.23,WSW,248,7.0,9.0,92,0.00,,,0.01,56,Wunderground v.1.15,2013-01-11 20:05:00,
2013-01-11 15:15:00,46.9,44.7,30.24,WSW,249,7.0,7.0,92,0.00,,,0.01,25,Wunderground v.1.15,2013-01-11 20:15:00,
2013-01-11 15:20:00,47.0,44.8,30.23,WSW,249,6.0,8.0,92,0.00,,,0.01,25,Wunderground v.1.15,2013-01-11 20:20:00,
2013-01-11 15:30:00,47.0,44.8,30.23,WSW,249,6.0,6.0,92,0.00,,,0.01,16,Wunderground v.1.15,2013-01-11 20:30:00,
2013-01-11 15:35:00,47.0,44.8,30.23,WSW,249,4.0,7.0,92,0.00,,,0.01,11,Wunderground v.1.15,2013-01-11 20:35:00,
2013-01-11 15:45:00,47.2,45.0,30.23,WSW,249,3.0,7.0,92,0.00,,,0.01,11,Wunderground v.1.15,2013-01-11 20:45:00,
2013-01-11 15:50:00,47.3,45.1,30.24,WSW,249,1.0,1.0,92,0.00,,,0.01,7,Wunderground v.1.15,2013-01-11 20:50:00,
2013-01-11 16:00:00,47.3,45.1,30.23,WSW,249,1.0,7.0,92,0.00,,,0.01,9,Wunderground v.1.15,2013-01-11 21:00:00,
2013-01-11 16:05:00,47.3,45.1,30.22,WSW,249,2.0,7.0,92,0.00,,,0.01,16,Wunderground v.1.15,2013-01-11 21:05:00,
2013-01-11 16:10:00,47.1,44.9,30.22,WSW,249,4.0,7.0,92,0.00,,,0.01,14,Wunderground v.1.15,2013-01-11 21:10:00,
2013-01-11 16:20:00,47.1,44.9,30.21,WSW,248,8.0,8.0,92,0.00,,,0.01,7,Wunderground v.1.15,2013-01-11 21:20:00,
2013-01-11 16:30:00,47.1,45.2,30.21,WSW,249,7.0,7.0,93,0.00,,,0.01,0,Wunderground v.1.15,2013-01-11 21:30:00,
2013-01-11 16:35:00,47.1,45.2,30.21,WSW,250,7.0,7.0,93,0.00,,,0.01,0,Wunderground v.1.15,2013-01-11 21:35:00,
2013-01-11 16:45:00,47.3,45.4,30.21,WSW,250,7.0,8.0,93,0.00,,,0.01,0,Wunderground v.1.15,2013-01-11 21:45:00,
2013-01-11 16:50:00,47.4,45.5,30.20,WSW,254,8.0,8.0,93,0.00,,,0.01,0,Wunderground v.1.15,2013-01-11 21:50:00,
2013-01-11 17:00:00,47.4,45.5,30.21,WSW,254,3.0,3.0,93,0.00,,,0.01,0,Wunderground v.1.15,2013-01-11 22:00:00,
2013-01-11 17:05:00,47.5,45.6,30.20,WSW,254,2.0,5.0,93,0.00,,,0.01,0,Wunderground v.1.15,2013-01-11 22:05:00,
2013-01-11 17:10:00,47.6,45.7,30.20,WSW,254,3.0,3.0,93,0.00,,,0.01,0,Wunderground v.1.15,2013-01-11 22:10:00,
2013-01-11 17:20:00,47.5,45.6,30.19,WSW,254,1.0,1.0,93,0.00,,,0.01,0,Wunderground v.1.15,2013-01-11 22:20:00,
2013-01-11 17:30:00,47.5,45.6,30.19,WSW,253,3.0,3.0,93,0.00,,,0.02,0,Wunderground v.1.15,2013-01-11 22:30:00,
2013-01-11 17:35:00,47.5,45.6,30.19,WSW,253,2.0,7.0,93,0.00,,,0.02,0,Wunderground v.1.15,2013-01-11 22:35:00,
2013-01-11 17:45:00,47.7,46.1,30.18,WSW,253,2.0,7.0,94,0.00,,,0.02,0,Wunderground v.1.15,2013-01-11 22:45:00,
2013-01-11 17:50:00,47.9,46.3,30.18,WSW,253,1.0,7.0,94,0.00,,,0.02,0,Wunderground v.1.15,2013-01-11 22:50:00,
2013-01-11 18:00:00,48.5,46.9,30.18,WSW,253,1.0,1.0,94,0.00,,,0.02,0,Wunderground v.1.15,2013-01-11 23:00:00,
2013-01-11 18:05:00,48.8,47.2,30.17,West,263,2.0,2.0,94,0.00,,,0.02,0,Wunderground v.1.15,2013-01-11 23:05:00,
2013-01-11 18:15:00,48.9,47.2,30.17,West,263,1.0,7.0,94,0.00,,,0.02,0,Wunderground v.1.15,2013-01-11 23:15:00,
2013-01-11 18:20:00,48.9,47.2,30.16,West,263,1.0,7.0,94,0.00,,,0.02,0,Wunderground v.1.15,2013-01-11 23:20:00,
2013-01-11 18:30:00,48.9,47.2,30.15,West,263,2.0,7.0,94,0.00,,,0.02,0,Wunderground v.1.15,2013-01-11 23:30:00,
2013-01-11 18:35:00,49.0,47.3,30.15,West,263,3.0,7.0,94,0.00,,,0.02,0,Wunderground v.1.15,2013-01-11 23:35:00,
2013-01-11 18:45:00,49.5,47.8,30.15,WNW,285,5.0,7.0,94,0.00,,,0.02,0,Wunderground v.1.15,2013-01-11 23:45:00,
2013-01-11 18:50:00,49.7,48.0,30.15,WNW,296,4.0,7.0,94,0.00,,,0.02,0,Wunderground v.1.15,2013-01-11 23:50:00,
2013-01-11 19:00:00,50.1,48.4,30.14,WNW,302,5.0,5.0,94,0.00,,,0.03,0,Wunderground v.1.15,2013-01-12 00:00:00,
2013-01-11 19:05:00,50.4,49.0,30.14,NW,304,5.0,7.0,95,0.06,,,0.04,0,Wunderground v.1.15,2013-01-12 00:05:00,
2013-01-11 19:10:00,50.5,49.1,30.14,NW,304,5.0,5.0,95,0.06,,,0.04,0,Wunderground v.1.15,2013-01-12 00:10:00,
2013-01-11 19:20:00,50.6,49.2,30.14,NW,306,6.0,10.0,95,0.00,,,0.04,0,Wunderground v.1.15,2013-01-12 00:20:00,
2013-01-11 19:30:00,50.9,49.5,30.13,WNW,301,7.0,9.0,95,0.00,,,0.04,0,Wunderground v.1.15,2013-01-12 00:30:00,
2013-01-11 19:35:00,51.2,49.8,30.13,WNW,301,7.0,9.0,95,0.00,,,0.04,0,Wunderground v.1.15,2013-01-12 00:35:00,
2013-01-11 19:45:00,51.6,50.2,30.12,NW,313,8.0,9.0,95,0.17,,,0.06,0,Wunderground v.1.15,2013-01-12 00:45:00,
2013-01-11 19:50:00,51.6,50.2,30.12,NW,304,8.0,8.0,95,0.11,,,0.07,0,Wunderground v.1.15,2013-01-12 00:50:00,
2013-01-11 20:00:00,51.9,50.5,30.10,NW,306,7.0,7.0,95,0.05,,,0.07,0,Wunderground v.1.15,2013-01-12 01:00:00,
2013-01-11 20:05:00,52.2,50.8,30.10,WNW,302,8.0,8.0,95,0.00,,,0.07,0,Wunderground v.1.15,2013-01-12 01:05:00,
2013-01-11 20:15:00,52.4,51.0,30.09,WNW,300,8.0,8.0,95,0.00,,,0.07,0,Wunderground v.1.15,2013-01-12 01:15:00,
2013-01-11 20:25:00,52.4,51.0,30.09,WNW,300,7.0,8.0,95,0.00,,,0.07,0,Wunderground v.1.15,2013-01-12 01:25:00,
2013-01-11 20:30:00,52.3,50.9,30.09,WNW,300,6.0,7.0,95,0.00,,,0.07,0,Wunderground v.1.15,2013-01-12 01:30:00,
2013-01-11 20:35:00,52.5,51.1,30.09,WNW,294,7.0,12.0,95,0.00,,,0.07,0,Wunderground v.1.15,2013-01-12 01:35:00,
2013-01-11 20:45:00,52.8,51.4,30.09,WNW,303,8.0,8.0,95,0.00,,,0.07,0,Wunderground v.1.15,2013-01-12 01:45:00,
2013-01-11 20:50:00,52.8,51.4,30.09,WNW,296,8.0,9.0,95,0.00,,,0.07,0,Wunderground v.1.15,2013-01-12 01:50:00,
2013-01-11 21:00:00,52.8,51.4,30.09,WNW,297,7.0,7.0,95,0.00,,,0.07,0,Wunderground v.1.15,2013-01-12 02:00:00,
2013-01-11 21:05:00,52.8,51.4,30.09,WNW,296,5.0,7.0,95,0.00,,,0.07,0,Wunderground v.1.15,2013-01-12 02:05:00,
2013-01-11 21:15:00,52.9,51.5,30.09,WNW,297,3.0,7.0,95,0.00,,,0.07,0,Wunderground v.1.15,2013-01-12 02:15:00,
2013-01-11 21:20:00,53.1,51.7,30.09,WNW,297,3.0,7.0,95,0.43,,,0.09,0,Wunderground v.1.15,2013-01-12 02:20:00,
2013-01-11 21:30:00,53.5,52.4,30.09,WNW,298,4.0,4.0,96,0.05,,,0.09,0,Wunderground v.1.15,2013-01-12 02:30:00,
2013-01-11 21:35:00,53.8,52.4,30.10,WNW,299,2.0,7.0,95,0.04,,,0.09,0,Wunderground v.1.15,2013-01-12 02:35:00,
2013-01-11 21:45:00,54.6,53.5,30.11,NNE,16,4.0,6.0,96,0.00,,,0.09,0,Wunderground v.1.15,2013-01-12 02:45:00,
2013-01-11 21:50:00,55.0,53.9,30.11,NNE,16,4.0,7.0,96,0.18,,,0.11,0,Wunderground v.1.15,2013-01-12 02:50:00,
2013-01-11 22:00:00,55.2,53.8,30.11,North,9,4.0,7.0,95,0.05,,,0.11,0,Wunderground v.1.15,2013-01-12 03:00:00,
2013-01-11 22:05:00,55.2,53.8,30.10,North,11,3.0,7.0,95,0.04,,,0.12,0,Wunderground v.1.15,2013-01-12 03:05:00,
2013-01-11 22:15:00,55.0,53.6,30.10,North,11,3.0,7.0,95,0.04,,,0.12,0,Wunderground v.1.15,2013-01-12 03:15:00,
2013-01-11 22:25:00,55.0,53.6,30.10,North,11,1.0,7.0,95,0.00,,,0.12,0,Wunderground v.1.15,2013-01-12 03:25:00,
2013-01-11 22:30:00,54.9,53.5,30.10,North,11,0.0,7.0,95,0.00,,,0.12,0,Wunderground v.1.15,2013-01-12 03:30:00,
2013-01-11 22:40:00,51.9,50.2,30.10,East,92,3.0,7.0,94,0.00,,,0.12,0,Wunderground v.1.15,2013-01-12 03:40:00,
2013-01-11 22:50:00,50.1,48.2,30.09,East,88,2.0,2.0,93,0.00,,,0.12,0,Wunderground v.1.15,2013-01-12 03:50:00,
2013-01-11 22:55:00,49.0,47.3,30.10,East,88,1.0,7.0,94,0.00,,,0.12,0,Wunderground v.1.15,2013-01-12 03:55:00,
2013-01-11 23:05:00,49.1,47.7,30.10,East,88,1.0,7.0,95,0.00,,,0.12,0,Wunderground v.1.15,2013-01-12 04:05:00,
2013-01-11 23:10:00,49.0,47.6,30.09,East,88,2.0,7.0,95,0.00,,,0.12,0,Wunderground v.1.15,2013-01-12 04:10:00,
2013-01-11 23:20:00,48.6,47.2,30.09,East,88,3.0,3.0,95,0.00,,,0.12,0,Wunderground v.1.15,2013-01-12 04:20:00,
2013-01-11 23:25:00,48.5,47.1,30.09,East,87,2.0,7.0,95,0.00,,,0.12,0,Wunderground v.1.15,2013-01-12 04:25:00,
2013-01-11 23:35:00,48.3,46.9,30.09,East,87,1.0,7.0,95,0.00,,,0.12,0,Wunderground v.1.15,2013-01-12 04:35:00,
2013-01-11 23:40:00,48.2,47.9,30.09,East,87,1.0,1.0,99,0.00,,,0.12,0,Wunderground v.1.15,2013-01-12 04:40:00,
2013-01-11 23:50:00,48.1,46.7,30.08,East,87,0.0,7.0,95,0.00,,,0.12,0,Wunderground v.1.15,2013-01-12 04:50:00,
2013-01-11 23:56:00,48.1,46.7,30.08,East,87,0.0,7.0,95,0.00,,,0.12,0,Wunderground v.1.15,2013-01-12 04:56:00,